This demonstration page uses our WeatherBlox Daily Observations layout. Learn more.

Hourly Observations for May 28, 2020

Temp ( °F °C ) Dew Point ( °F °C ) Humidity (%) Winds ( mph kmh ) Pressure ( in mb ) Visibility ( mi km ) Precip ( " mm )
12:15 am 00:15 Clear 60 15.4 52 11.3 77 77 NW 6 9 29.96 1014 10 16.0934 0 0
12:35 am 00:35 Clear 60 15.3 53 11.5 78 78 Calm 29.97 1015 10 16.0934 0 0
12:55 am 00:55 Clear 58 14.3 52 11.1 81 81 Calm 29.98 1015 10 16.0934 0 0
1:15 am 01:15 Clear 58 14.2 52 11.3 83 83 NNW 5 7 29.98 1015 10 16.0934 0 0
1:35 am 01:35 Clear 59 15 52 11.1 78 78 NNW 5 7 29.97 1015 10 16.0934 0 0
1:55 am 01:55 Clear 57 14.1 52 11 82 82 NNW 5 7 29.99 1015 10 16.0934 0 0
2:15 am 02:15 Clear 56 13.6 52 11 84 84 NW 6 9 29.99 1016 10 16.0934 0 0
2:35 am 02:35 Clear 56 13.3 52 11 86 86 NW 5 7 29.99 1016 10 16.0934 0 0
2:55 am 02:55 Clear 56 13.3 52 11 86 86 NW 6 9 29.99 1016 10 16.0934 0 0
3:15 am 03:15 Clear 56 13.2 52 10.9 86 86 NW 6 9 29.99 1016 10 16.0934 0 0
3:35 am 03:35 Clear 56 13.2 51 10.8 86 86 NW 6 9 30.01 1016 10 16.0934 0 0
3:55 am 03:55 Clear 55 13 52 11 88 88 NW 8 13 30.02 1016 10 16.0934 0 0
4:15 am 04:15 Clear 57 13.9 52 11.1 83 83 NW 9 15 30.01 1016 10 16.0934 0 0
4:35 am 04:35 Clear 56 13.5 52 11.1 86 86 NW 8 13 30.01 1016 10 16.0934 0 0
4:55 am 04:55 Clear 56 13.3 52 11.2 87 87 NW 7 11 30.02 1017 10 16.0934 0 0
5:15 am 05:15 Clear 57 14 52 11.1 83 83 NW 8 13 30.02 1017 10 16.0934 0 0
5:35 am 05:35 Clear 57 14 52 11 82 82 NW 7 11 30.02 1017 10 16.0934 0 0
5:55 am 05:55 Clear 58 14.2 52 10.9 81 81 NW 8 13 30.03 1017 10 16.0934 0 0
6:15 am 06:15 Sunny 57 14 52 11 82 82 NW 9 15 30.03 1017 10 16.0934 0 0
6:35 am 06:35 Sunny 58 14.2 52 11 81 81 NNW 14 22 30.05 1017 10 16.0934 0 0
6:55 am 06:55 Partly Cloudy 58 14.2 53 11.5 84 84 NNW 10 17 30.06 1018 10 16.0934 0 0
7:15 am 07:15 Mostly Cloudy 59 15.1 54 12.4 84 84 N 14 22 30.05 1018 10 16.0934 0 0
7:35 am 07:35 Partly Cloudy 60 15.8 55 12.5 81 81 N 14 22 30.04 1017 10 16.0934 0 0
7:55 am 07:55 Mostly Cloudy 62 16.4 55 12.5 78 78 N 15 24 30.05 1018 10 16.0934 0 0
8:15 am 08:15 Cloudy 62 16.7 55 12.5 76 76 N 16 26 30.04 1017 10 16.0934 0 0
8:35 am 08:35 Mostly Cloudy 63 17.1 55 12.7 75 75 N 17 28 30.04 1017 10 16.0934 0 0
8:55 am 08:55 Mostly Cloudy 63 17 55 12.7 76 76 N 17 28 30.04 1017 10 16.0934 0 0
9:15 am 09:15 Cloudy 63 17.1 55 12.8 76 76 N 15 24 30.04 1017 10 16.0934 0 0
9:35 am 09:35 Mostly Cloudy 64 17.7 55 12.8 73 73 N 16 26 30.05 1017 10 16.0934 0 0
9:55 am 09:55 Sunny 66 19 55 12.6 67 67 N 21 33 30.04 1017 10 16.0934 0 0
10:15 am 10:15 Mostly Cloudy 67 19.6 55 12.6 64 64 NNE 21 33 30.04 1017 10 16.0934 0 0
10:35 am 10:35 Partly Cloudy 67 19.5 55 12.5 64 64 NNE 18 30 30.04 1017 10 16.0934 0 0
10:55 am 10:55 Sunny 70 20.9 55 12.6 59 59 N 21 33 30.04 1017 10 16.0934 0 0
11:15 am 11:15 Sunny 71 21.5 55 12.9 58 58 NNE 16 26 30.03 1017 10 16.0934 0 0
11:35 am 11:35 Mostly Cloudy 72 22 56 13.1 57 57 N 17 28 30.03 1017 10 16.0934 0 0
11:55 am 11:55 Partly Cloudy 74 23.4 56 13.2 53 53 NNE 20 31 30.02 1017 10 16.0934 0 0
12:15 pm 12:15 Sunny 75 23.7 55 12.6 50 50 N 17 28 30.02 1016 10 16.0934 0 0
12:35 pm 12:35 Sunny 76 24.3 54 12.3 47 47 N 17 28 30.01 1016 10 16.0934 0 0
12:55 pm 12:55 Sunny 76 24.3 53 11.7 45 45 NNE 24 39 30.02 1017 10 16.0934 0 0
1:15 pm 13:15 Partly Cloudy 76 24.6 55 12.5 47 47 NNE 17 28 30.01 1016 10 16.0934 0 0
1:35 pm 13:35 Partly Cloudy 76 24.3 54 12.2 47 47 N 20 31 30.01 1016 10 16.0934 0 0
1:55 pm 13:55 Partly Cloudy 77 25 54 12.1 45 45 N 17 28 30.01 1016 10 16.0934 0 0
2:15 pm 14:15 Partly Cloudy 78 25.5 50 10.1 38 38 N 15 24 30 1016 10 16.0934 0 0
2:35 pm 14:35 Sunny 78 25.6 51 10.7 39 39 N 21 33 30 1016 10 16.0934 0 0
2:55 pm 14:55 Sunny 77 25.2 51 10.6 40 40 N 17 28 30 1016 10 16.0934 0 0
3:15 pm 15:15 Sunny 78 25.6 48 8.9 35 35 NNE 18 30 30.01 1016 10 16.0934 0 0
3:35 pm 15:35 Sunny 78 25.7 49 9.5 36 36 NNE 16 26 30.01 1016 10 16.0934 0 0
3:55 pm 15:55 Sunny 78 25.5 48 8.7 35 35 NNE 14 22 30.01 1016 10 16.0934 0 0
4:15 pm 16:15 Sunny 78 25.6 47 8.6 34 34 NNE 16 26 30 1016 10 16.0934 0 0
4:35 pm 16:35 Sunny 78 25.5 49 9.2 36 36 NE 14 22 30 1016 10 16.0934 0 0
4:55 pm 16:55 Sunny 78 25.4 49 9.2 36 36 NNE 13 20 30 1016 10 16.0934 0 0
5:15 pm 17:15 Sunny 78 25.6 48 8.7 34 34 NNE 12 19 30 1016 10 16.0934 0 0
5:35 pm 17:35 Sunny 76 24.5 47 8.3 36 36 N 18 30 30.01 1016 10 16.0934 0 0
5:55 pm 17:55 Sunny 77 25.2 47 8.3 34 34 N 18 30 30.01 1016 10 16.0934 0 0
6:15 pm 18:15 Sunny 76 24.4 47 8.2 36 36 N 12 19 30.02 1017 10 16.0934 0 0
6:35 pm 18:35 Partly Cloudy 76 24.6 48 8.7 36 36 N 17 28 30.02 1017 10 16.0934 0 0
6:55 pm 18:55 Mostly Cloudy 77 24.9 48 9 37 37 NNE 13 20 30.03 1017 10 16.0934 0 0
7:15 pm 19:15 Partly Cloudy 76 24.2 48 9 38 38 N 15 24 30.03 1017 10 16.0934 0 0
7:35 pm 19:35 Sunny 74 23.5 49 9.3 41 41 NNE 14 22 30.04 1017 10 16.0934 0 0
7:55 pm 19:55 Sunny 73 23 48 9 41 41 NNE 12 19 30.05 1018 10 16.0934 0 0
8:15 pm 20:15 Sunny 72 22.1 48 9 43 43 NNE 14 22 30.06 1018 10 16.0934 0 0
8:35 pm 20:35 Sunny 70 21 48 9.1 47 47 NNE 12 19 30.07 1018 10 16.0934 0 0
8:55 pm 20:55 Sunny 68 20.2 48 8.8 48 48 NNE 12 19 30.09 1019 10 16.0934 0 0
9:15 pm 21:15 Clear 65 18.5 49 9.2 55 55 NNE 12 19 30.11 1020 10 16.0934 0 0
9:35 pm 21:35 Clear 64 17.9 49 9.2 57 57 NNE 9 15 30.11 1020 10 16.0934 0 0
9:55 pm 21:55 Clear 63 17.2 48 8.7 58 58 NE 8 13 30.14 1021 10 16.0934 0 0
10:15 pm 22:15 Clear 61 16 48 8.8 63 63 NNE 7 11 30.15 1021 10 16.0934 0 0
10:35 pm 22:35 Clear 59 14.8 48 8.7 67 67 NNE 8 13 30.17 1022 10 16.0934 0 0
10:55 pm 22:55 Clear 58 14.4 48 8.7 69 69 NNE 7 11 30.17 1022 10 16.0934 0 0
11:15 pm 23:15 Clear 57 14 47 8.6 70 70 NNE 8 13 30.19 1022 10 16.0934 0 0
11:35 pm 23:35 Clear 56 13.6 47 8.6 72 72 NNE 9 15 30.19 1022 10 16.0934 0 0
11:55 pm 23:55 Clear 56 13.2 47 8.6 74 74 NNE 7 11 30.19 1023 10 16.0934 0 0

Powered by AerisWeather